Location: Caltech
(34.1382°N, 118.1253°W)
Time: 06:02:43
(UTC-07:00)

SL-16 R/B - Visible Passes

Search period start: 20 October 2014 00:00
Search period end: 30 October 2014 00:00
Orbit: 843 x 846 km, 71.0° (Epoch: 20 October)

Date Brightness Start Highest point End Pass type
(mag) Time Alt. Az. Time Alt. Az. Time Alt. Az.
20 Oct 4.8 19:03:48 10° W 19:07:01 15° NW 19:10:14 10° NNW visible
21 Oct 4.8 18:49:28 10° W 18:52:49 16° NW 18:56:11 10° NNW visible
22 Oct 4.8 18:35:08 10° W 18:38:37 16° NW 18:42:07 10° NNW visible
